TimePDT,TemperatureF,Dew PointF,Humidity,Sea Level PressureIn,VisibilityMPH,Wind Direction,Wind SpeedMPH,Gust SpeedMPH,PrecipitationIn,Events,Conditions,WindDirDegrees,DateUTC
12:00 AM,50.0,35.6,58,30.10,9.0,SSW,17.3,29.9,N/A,,Clear,210,2012-10-17 07:00:00
1:00 AM,50.0,33.8,54,30.12,9.0,South,17.3,25.3,N/A,,Clear,180,2012-10-17 08:00:00
2:00 AM,49,34,45,30.14,9,SSW,17.3,,,,,200,2012-10-17 09:00:00
2:00 AM,50.0,33.8,54,30.14,9.0,South,15.0,28.8,N/A,,Clear,190,2012-10-17 09:00:00
3:00 AM,50.0,33.8,54,30.16,9.0,South,16.1,23.0,N/A,,Clear,170,2012-10-17 10:00:00
4:00 AM,48.2,33.8,58,30.17,9.0,South,11.5,23.0,N/A,,Clear,180,2012-10-17 11:00:00
5:00 AM,47,35,52,30.17,9,South,16.1,,,,,180,2012-10-17 12:00:00
5:00 AM,48.2,35.6,62,30.17,9.0,South,18.4,-,N/A,,Clear,190,2012-10-17 12:00:00
6:00 AM,46.4,35.6,66,30.19,9.0,South,10.4,19.6,N/A,,Clear,190,2012-10-17 13:00:00
7:00 AM,41.0,32.0,70,30.22,9.0,NNE,4.6,-,N/A,,Clear,20,2012-10-17 14:00:00
8:00 AM,39,32,69,30.25,9,North,3.5,,,,,0,2012-10-17 15:00:00
8:00 AM,39.2,32.0,75,30.25,9.0,North,3.5,-,N/A,,Clear,10,2012-10-17 15:00:00
9:00 AM,39.2,32.0,75,30.27,9.0,North,3.5,-,N/A,,Clear,10,2012-10-17 16:00:00
10:00 AM,42.8,32.0,66,30.27,9.0,ENE,2.3,-,N/A,,Clear,70,2012-10-17 17:00:00
11:00 AM,47,33,47,30.27,9,North,2.3,,,,,0,2012-10-17 18:00:00
11:00 AM,48.2,33.8,58,30.27,9.0,North,3.5,-,N/A,,Clear,10,2012-10-17 18:00:00
12:00 PM,51.8,35.6,54,30.25,9.0,Calm,Calm,-,N/A,,Clear,0,2012-10-17 19:00:00
2:00 PM,56,36,35,30.20,9,South,19.6,,,,,180,2012-10-17 21:00:00
2:00 PM,57.2,35.6,44,30.20,9.0,South,17.3,27.6,N/A,,Partly Cloudy,190,2012-10-17 21:00:00
3:00 PM,57.2,37.4,48,30.19,9.0,South,12.7,25.3,N/A,,Clear,190,2012-10-17 22:00:00
4:00 PM,57.2,35.6,44,30.19,9.0,South,15.0,29.9,N/A,,Clear,190,2012-10-17 23:00:00
5:00 PM,53,35,39,30.19,9,SSW,18.4,,,,,200,2012-10-18 00:00:00
5:00 PM,53.6,35.6,51,30.19,9.0,SSW,19.6,28.8,N/A,,Clear,200,2012-10-18 00:00:00
6:00 PM,53.6,35.6,51,30.20,9.0,SSW,16.1,24.2,N/A,,Clear,200,2012-10-18 01:00:00
7:00 PM,51.8,35.6,54,30.20,9.0,South,18.4,25.3,N/A,,Clear,190,2012-10-18 02:00:00
8:00 PM,52,36,43,30.19,9,South,20.7,,,,,180,2012-10-18 03:00:00
8:00 PM,51.8,35.6,54,30.19,9.0,South,17.3,27.6,N/A,,Clear,190,2012-10-18 03:00:00
9:00 PM,51.8,35.6,54,30.17,9.0,South,18.4,25.3,N/A,,Mostly Cloudy,190,2012-10-18 04:00:00
10:00 PM,51.8,35.6,54,30.16,9.0,SSW,19.6,28.8,N/A,,Clear,200,2012-10-18 05:00:00
11:00 PM,51,36,46,30.14,9,SSW,21.9,,,,,210,2012-10-18 06:00:00
11:00 PM,51.8,37.4,58,30.14,9.0,SSW,24.2,36.8,N/A,,Clear,210,2012-10-18 06:00:00